Temperature
15 15 16 15 15 15 15 16 16 15 15 15 15 16 16 15 15 15 15 15 15 15 15 15 15 15 15 15 15 14 14 14 14 14 14 14 14 14
15 15 15 15 15 15 15 15 15 15 15 15 15 15 15 15 15 15 15 15 15 15 14 14 14 14 14 14 14 14 14 14 14 14 14 14 13 13
15 15 15 15 15 15 15 15 15 15 15 15 15 14 15 15 15 15 14 14 14 14 14 14 14 14 14 14 13 13 13 13 13 13 13 13 13 13
14 14 14 14 14 14 14 14 14 15 15 14 14 14 14 14 14 14 14 14 14 14 14 13 13 13 13 13 13 13 13 13 13 13 13 13 13 12
14 14 14 14 14 14 14 14 14 14 14 14 14 14 14 14 14 14 13 13 13 13 13 13 13 13 13 12 12 12 12 13 13 13 12 12 12 12
14 14 14 14 14 14 14 14 14 14 14 14 14 13 13 13 13 13 13 13 13 13 12 12 12 12 12 12 12 12 12 12 12 12 12 12 12 11
13 14 14 14 14 14 14 14 14 14 13 13 13 13 13 13 13 13 13 12 12 12 12 12 12 12 12 12 12 12 12 12 12 12 12 11 11 11
13 13 13 13 14 14 14 13 13 14 13 13 13 13 13 13 13 13 13 12 12 12 12 11 11 11 11 11 11 11 11 11 11 11 11 11 11 10
13 13 13 13 13 13 13 13 13 13 13 14 13 13 13 13 13 13 12 12 12 11 11 11 11 11 11 11 11 11 11 11 11 11 10 10 10 10
12 13 13 13 13 13 13 13 13 13 13 13 13 13 13 13 13 13 12 12 12 11 11 11 10 10 10 10 10 10 10 10 10 10 10 9 9 9
12 12 13 13 13 13 13 13 13 13 13 13 13 13 13 13 13 12 12 12 11 11 11 11 10 10 10 9 10 10 9 9 9 9 9 9 9 9
12 12 12 12 13 13 13 13 13 13 13 12 12 12 12 12 12 12 12 12 12 11 11 11 10 10 9 9 9 9 9 9 9 9 9 9 9 8
12 12 12 12 12 12 12 12 12 12 12 12 12 12 12 12 12 12 12 12 12 12 11 11 10 10 10 9 9 9 9 8 8 8 8 8 8 8
12 12 12 12 12 12 12 12 12 12 12 12 12 12 12 12 12 12 11 11 11 11 11 11 11 10 10 10 9 9 8 8 8 8 8 8 8 8
12 12 12 12 12 12 12 12 12 12 12 12 12 11 11 11 11 11 11 11 11 11 11 10 10 10 10 10 9 9 9 8 8 8 7 7 7 7
11 11 11 11 12 11 11 11 11 11 11 11 11 11 11 11 11 11 11 10 10 10 10 10 10 10 10 9 9 9 8 8 8 7 7 7 7 7
11 11 11 11 11 11 11 11 11 11 11 11 11 11 10 10 10 10 10 10 10 10 10 9 9 9 9 9 9 8 8 8 7 7 7 7 7 7
11 11 11 11 11 11 11 11 11 11 11 10 10 10 10 10 10 10 10 10 10 9 9 9 9 9 9 8 8 8 8 8 7 7 7 7 7 7
11 11 11 11 11 11 11 11 10 10 10 10 10 10 10 10 9 9 9 9 9 9 9 9 8 8 8 8 8 8 8 7 7 7 7 7 7 7
11 10 10 10 10 10 10 10 10 10 10 10 10 10 10 9 9 9 9 9 9 9 8 8 8 8 8 8 8 8 8 7 7 7 7 7 7 7
11 11 11 10 10 10 10 10 10 10 10 10 9 9 9 9 9 9 9 9 8 8 8 8 8 8 8 8 8 8 7 7 7 7 7 7 7 7
11 11 11 11 11 10 10 10 10 10 10 10 9 9 9 9 9 9 9 8 8 8 8 8 8 7 7 7 7 7 7 7 7 7 7 7 7 7
11 11 11 11 11 11 11 10 10 10 10 9 9 9 9 9 9 9 8 8 8 8 8 8 7 7 7 7 7 7 7 7 7 7 7 7 7 7
Wind_Speed
6 7 5 5 5 4 4 5 6 4 3 3 2 1 3 4 6 9 9 13 13 12 11 11 10 9 8 7 5 4 3 2 2 2 2 3 3 4
5 6 5 4 4 4 5 4 4 5 4 3 2 2 2 3 6 7 8 10 11 11 10 10 9 8 8 7 6 4 3 2 2 2 2 3 3 4
4 6 6 5 5 4 5 5 4 4 4 2 1 1 2 3 3 5 6 6 7 9 9 7 7 6 6 6 5 4 3 2 1 1 2 2 3 3
4 5 5 5 6 5 4 5 5 4 5 4 2 2 2 3 4 4 4 5 6 8 9 8 8 7 5 5 5 4 3 2 2 1 1 2 2 3
3 4 5 6 5 4 5 5 4 4 4 4 3 2 1 2 3 3 4 5 7 8 9 9 9 9 8 7 7 6 4 4 4 3 3 3 3 3
2 3 4 5 6 6 5 5 5 5 5 5 4 2 2 3 4 5 4 4 5 7 9 11 13 12 10 9 8 7 6 5 5 5 5 5 5 5
4 3 3 4 5 5 5 5 6 5 5 5 4 3 3 3 4 4 6 6 5 4 6 7 9 9 9 10 9 8 7 7 6 6 6 6 7 7
5 4 4 4 5 6 7 8 8 7 6 4 3 4 3 4 4 6 6 5 3 3 5 5 5 6 7 9 10 10 9 8 8 8 8 8 9 9
5 4 4 4 5 6 8 8 6 6 7 6 5 4 4 5 6 6 5 4 4 4 5 4 4 5 7 9 11 11 10 10 10 9 9 9 9 10
5 5 5 4 5 7 8 8 7 6 5 5 5 4 4 5 6 6 7 7 7 4 3 3 2 3 4 8 10 11 11 11 10 9 9 9 9 10
6 6 5 5 7 10 10 9 9 7 9 11 11 9 9 10 10 9 8 8 5 2 2 3 3 3 2 3 8 10 11 10 10 9 8 8 8 9
5 6 7 7 9 10 8 9 9 6 6 7 8 9 8 9 9 7 8 8 5 3 2 3 3 3 2 1 2 5 7 9 10 9 8 8 8 8
5 5 4 8 9 9 8 6 8 7 7 8 7 6 6 6 5 6 5 6 5 3 4 4 3 3 3 2 0 1 2 3 5 7 8 8 8 8
4 3 5 9 9 9 8 9 11 9 7 7 6 5 5 5 5 6 9 9 7 5 6 5 4 4 4 3 2 1 1 1 2 3 4 7 7 7
4 6 8 10 10 8 10 11 9 7 6 6 5 4 3 4 4 5 7 10 12 12 7 3 4 4 4 4 3 2 1 0 1 1 1 1 1 2
5 7 10 11 9 8 8 7 5 5 5 5 4 3 3 4 4 4 4 4 5 5 10 11 7 6 4 3 4 3 2 2 1 1 1 0 1 1
3 4 4 4 5 5 5 5 4 4 5 3 4 4 4 4 3 3 3 3 4 3 3 4 11 12 7 4 3 2 2 1 1 1 1 0 2 3
5 4 3 3 4 4 4 3 3 3 3 3 4 4 4 4 3 3 3 4 4 3 2 1 2 4 4 4 3 3 2 1 1 1 1 1 2 4
4 3 3 3 3 3 3 3 2 2 2 4 4 3 4 3 4 4 4 4 3 3 2 1 2 3 2 1 2 1 3 2 1 0 1 2 3 4
2 2 3 3 3 3 3 2 2 2 2 3 3 3 3 3 4 4 4 4 4 3 2 1 2 3 5 4 3 2 3 4 3 2 2 1 2 4
2 2 3 3 3 3 3 3 3 3 3 3 3 3 4 4 4 4 4 6 4 3 3 3 2 3 3 3 2 1 2 4 5 4 3 1 1 2
4 4 3 4 4 4 4 3 3 3 3 3 3 3 3 4 5 5 5 4 4 4 4 2 2 2 2 3 3 3 2 2 3 6 8 7 4 4
5 5 5 5 4 4 4 5 5 4 4 4 4 4 4 4 4 4 4 5 4 4 3 3 2 1 2 3 3 3 3 2 1 2 4 10 14 16
Wind_Direction
197 189 183 187 185 179 167 160 160 170 199 198 185 186 164 168 175 183 190 195 198 204 207 207 205 201 198 193 193 195 202 189 187 218 253 274 286 288
189 178 179 178 183 187 183 172 164 160 175 188 185 174 161 153 162 164 174 185 196 200 203 207 206 202 195 189 188 187 186 191 199 226 261 278 286 287
179 181 186 176 183 186 179 171 171 156 164 159 140 141 136 147 141 144 151 160 179 186 185 183 180 183 186 181 170 166 166 164 183 244 273 287 292 293
175 176 180 174 176 178 173 174 174 165 159 160 150 150 149 162 153 146 141 142 147 158 158 154 148 142 135 138 130 130 127 112 88 52 3 347 327 318
159 170 173 163 166 164 164 166 163 155 143 147 152 139 123 141 128 117 115 111 123 126 126 127 127 121 112 109 104 99 98 94 83 67 48 34 21 14
104 134 147 157 160 159 162 162 154 145 142 142 140 133 123 125 125 126 115 102 103 102 97 102 103 99 100 101 99 95 88 82 80 75 66 63 57 52
69 89 114 130 151 160 157 154 150 147 146 143 139 134 137 137 142 137 129 115 91 92 95 85 84 79 75 79 83 84 83 82 78 74 73 72 71 68
69 65 81 96 115 125 136 147 153 153 154 148 146 152 156 150 138 139 136 131 114 107 96 78 72 74 63 67 76 82 83 82 81 78 79 80 77 73
63 64 78 86 90 95 101 105 108 123 143 148 149 159 156 158 146 143 141 127 117 130 107 84 62 69 58 64 72 75 80 83 83 83 82 83 84 80
52 61 74 73 87 102 100 91 82 77 99 112 129 136 142 145 144 137 130 109 99 94 96 99 74 68 55 52 61 69 73 75 78 83 83 84 84 80
47 51 67 80 94 101 101 100 91 77 78 89 94 97 107 117 126 123 123 127 122 103 74 106 119 98 66 37 47 59 67 72 76 79 80 83 85 82
46 41 57 83 96 101 103 108 104 93 89 83 73 70 79 96 110 128 142 142 134 128 130 112 137 134 112 52 29 43 58 64 70 73 76 82 90 89
58 43 46 81 93 98 99 103 115 112 97 92 84 73 69 72 73 85 108 138 137 136 159 130 139 138 125 134 102 26 51 52 59 60 67 77 88 96
64 43 53 72 85 97 98 104 106 101 94 90 86 79 77 75 74 78 84 80 81 115 146 139 136 150 132 130 150 120 44 58 74 65 64 74 80 87
60 62 67 70 74 82 96 102 101 100 101 99 98 89 81 90 88 80 72 75 66 63 73 98 127 130 124 137 148 149 148 344 123 117 92 80 85 87
51 55 63 67 68 69 75 77 83 104 114 114 112 96 78 79 83 93 95 84 70 40 36 56 97 115 112 109 127 139 149 169 165 138 131 314 298 236
68 59 57 61 66 62 63 67 74 89 96 102 110 106 97 94 85 79 88 81 91 91 41 31 63 74 77 108 111 124 139 154 177 150 123 253 289 256
89 81 84 91 98 97 92 79 74 90 103 115 117 119 123 120 107 89 93 108 115 118 118 107 82 61 50 37 64 140 150 181 192 156 142 172 272 266
95 106 115 123 122 121 117 113 108 101 110 119 122 128 130 125 121 123 121 116 117 125 135 134 118 116 121 212 310 146 169 182 163 186 207 198 237 267
118 142 148 148 145 146 146 140 129 116 113 121 127 133 138 136 136 143 148 148 145 142 142 151 168 169 176 187 200 233 203 179 179 207 238 253 271 302
172 173 173 169 166 163 159 155 152 149 146 140 139 141 146 140 145 155 159 158 149 156 177 209 219 151 125 100 99 281 268 223 210 195 191 197 287 319
197 190 189 182 176 172 165 158 157 158 156 154 160 158 157 156 161 165 167 167 173 178 186 189 151 131 132 155 188 222 259 279 257 242 232 219 187 209
205 198 193 188 185 178 173 175 176 183 185 178 174 173 166 166 169 170 174 175 171 174 172 172 162 154 171 177 187 208 226 239 274 299 275 253 244 250
Height
1497 1500 1502 1505 1509 1512 1515 1517 1521 1522 1525 1527 1529 1531 1533 1535 1537 1539 1541 1543 1545 1547 1548 1550 1551 1553 1553 1554 1554 1555 1555 1555 1555 1555 1555 1554 1554 1553
1493 1496 1498 1501 1505 1508 1510 1513 1515 1519 1521 1524 1526 1528 1530 1532 1534 1536 1538 1540 1542 1543 1545 1547 1548 1550 1551 1551 1552 1552 1553 1553 1553 1553 1552 1552 1551 1550
1491 1493 1495 1498 1501 1504 1506 1508 1511 1514 1517 1520 1523 1525 1527 1529 1531 1533 1535 1537 1539 1540 1542 1543 1545 1546 1547 1548 1549 1550 1550 1550 1550 1550 1550 1549 1548 1547
1488 1490 1493 1495 1498 1501 1503 1505 1508 1511 1514 1516 1519 1522 1524 1527 1529 1530 1532 1534 1536 1537 1539 1540 1542 1543 1544 1545 1546 1547 1547 1548 1547 1547 1547 1546 1545 1544
1487 1489 1491 1493 1495 1498 1500 1503 1506 1508 1511 1514 1516 1519 1522 1524 1526 1528 1530 1531 1533 1535 1536 1538 1539 1541 1542 1543 1544 1544 1545 1545 1544 1544 1543 1543 1542 1541
1486 1488 1490 1492 1494 1496 1498 1501 1504 1506 1509 1512 1514 1517 1520 1522 1524 1526 1528 1530 1532 1533 1535 1536 1538 1539 1540 1541 1542 1542 1542 1542 1542 1541 1541 1540 1540 1539
1486 1488 1489 1491 1493 1495 1497 1499 1502 1505 1507 1510 1512 1515 1517 1520 1522 1525 1527 1529 1531 1533 1534 1536 1537 1538 1539 1540 1540 1541 1541 1540 1540 1540 1539 1538 1538 1537
1488 1489 1490 1491 1493 1495 1497 1500 1502 1504 1507 1509 1511 1513 1516 1518 1521 1523 1526 1528 1530 1533 1534 1535 1537 1538 1539 1539 1539 1540 1540 1539 1539 1538 1538 1537 1536 1536
1490 1490 1491 1493 1495 1496 1498 1500 1503 1505 1507 1509 1511 1513 1515 1517 1519 1522 1525 1527 1529 1532 1534 1535 1537 1538 1538 1539 1539 1539 1539 1538 1538 1537 1537 1536 1536 1535
1491 1492 1493 1495 1496 1498 1499 1501 1503 1505 1507 1510 1511 1513 1515 1517 1519 1522 1524 1527 1529 1532 1534 1535 1537 1538 1539 1539 1539 1539 1539 1538 1538 1537 1537 1536 1535 1535
1494 1495 1496 1497 1498 1499 1501 1502 1504 1506 1508 1510 1512 1514 1515 1517 1519 1521 1524 1526 1529 1531 1534 1535 1536 1537 1539 1539 1539 1539 1539 1538 1538 1538 1537 1536 1536 1535
1497 1497 1498 1499 1501 1502 1503 1505 1506 1508 1510 1512 1513 1515 1517 1519 1521 1523 1525 1526 1528 1531 1533 1534 1535 1537 1538 1539 1539 1539 1539 1539 1538 1538 1537 1537 1536 1535
1500 1500 1501 1502 1503 1505 1506 1507 1509 1510 1512 1513 1515 1517 1518 1520 1521 1523 1525 1527 1529 1530 1532 1534 1535 1536 1538 1539 1539 1539 1539 1539 1539 1538 1538 1537 1536 1535
1503 1503 1504 1505 1506 1507 1509 1510 1511 1512 1514 1515 1517 1518 1520 1521 1523 1524 1526 1528 1530 1531 1532 1534 1535 1536 1537 1538 1538 1539 1539 1539 1539 1538 1537 1537 1536 1535
1505 1506 1507 1508 1509 1510 1511 1512 1514 1515 1516 1517 1519 1520 1522 1523 1524 1526 1527 1529 1530 1531 1532 1534 1535 1536 1537 1537 1538 1538 1538 1538 1538 1538 1537 1537 1536 1535
1508 1509 1509 1510 1511 1512 1513 1514 1516 1517 1518 1519 1520 1522 1523 1524 1525 1527 1528 1529 1530 1531 1532 1534 1535 1536 1536 1537 1537 1537 1537 1537 1537 1537 1537 1536 1536 1535
1511 1511 1512 1513 1513 1514 1515 1516 1517 1518 1519 1520 1521 1523 1524 1525 1526 1528 1529 1530 1531 1531 1532 1533 1534 1535 1536 1536 1536 1536 1536 1536 1536 1536 1536 1535 1535 1534
1513 1513 1513 1514 1515 1515 1516 1517 1518 1519 1520 1521 1522 1523 1524 1526 1527 1528 1529 1530 1531 1531 1532 1533 1534 1534 1535 1536 1536 1536 1536 1536 1535 1535 1535 1534 1534 1534
1514 1514 1514 1515 1516 1517 1517 1518 1519 1520 1521 1522 1523 1524 1525 1526 1527 1528 1529 1530 1530 1531 1532 1533 1533 1534 1534 1535 1535 1535 1535 1534 1534 1534 1533 1533 1533 1532
1514 1515 1515 1515 1516 1517 1517 1518 1519 1520 1520 1521 1522 1523 1524 1525 1526 1527 1528 1529 1530 1531 1531 1532 1532 1533 1534 1534 1534 1534 1534 1533 1533 1532 1532 1532 1531 1531
1514 1514 1514 1515 1515 1516 1517 1517 1518 1519 1520 1521 1522 1522 1523 1525 1526 1527 1527 1528 1529 1530 1530 1531 1531 1532 1532 1533 1533 1532 1532 1532 1532 1531 1531 1530 1530 1529
1512 1512 1513 1513 1514 1514 1515 1516 1517 1517 1518 1519 1520 1521 1522 1523 1524 1525 1526 1527 1528 1529 1529 1530 1530 1530 1530 1531 1531 1531 1531 1531 1530 1530 1529 1529 1528 1527
1510 1511 1511 1511 1512 1512 1513 1514 1514 1515 1516 1517 1518 1519 1520 1521 1522 1523 1524 1525 1526 1526 1527 1528 1528 1528 1528 1528 1529 1529 1529 1529 1528 1528 1528 1527 1526 1525